Weather History for O'Neill, NE

Change the Weather History Date:

Saturday, July 6, 2013

  Actual Average Record
Temperature  
Mean Temperature 82 °F -  
Max Temperature 93 °F 88 °F 106 °F (2012)
Min Temperature 71 °F 61 °F 47 °F (1953)
Cooling Degree Days 17    
Growing Degree Days 32 (Base 50)    
Moisture  
Dew Point 58 °F    
Average Humidity 46    
Maximum Humidity 66    
Minimum Humidity 29    
Precipitation  
Precipitation 0.00 in - - ()
Sea Level Pressure  
Sea Level Pressure 29.78 in    
Wind  
Wind Speed 10 mph (SSE)    
Max Wind Speed 16 mph    
Max Gust Speed 21 mph    
Visibility 10 miles    
Events Rain    
Averages and records for this station are not official NWS values.
T = Trace of Precipitation, MM = Missing Value Source: NWS Daily Summary

Daily Weather History Graph

Daily Weather History Graph

Search for Another Location

Airport:

Trip Planner

Search our weather history database for the weather conditions in past years. The results will help you decide how hot, cold, wet, or windy it might be!

Date:

Astronomy

Jul. 06, 2013 Rise Set
Actual Time 6:04 AM CDT 9:14 PM CDT
Civil Twilight 5:30 AM CDT 9:48 PM CDT
Nautical Twilight 4:45 AM CDT 10:32 PM CDT
Astronomical Twilight 3:52 AM CDT 11:25 PM CDT
Moon 4:52 AM CDT (7/6) 7:55 PM CDT (7/6)
Length of Visible Light 16h 18m
Length of Day
15h 10m
Waning Crescent, 2% of the Moon is Illuminated
Jul 6
Waning Crescent
Jul 8
New
Jul 15
First Quarter
Jul 22
Full
Jul 29
Last Quarter

Hourly Weather History & Observations

Time (CDT) Temp. Heat Index Dew Point Humidity Pressure Visibility Wind Dir Wind Speed Gust Speed Precip Events Conditions
12:15 AM 79.9 °F - 57.2 °F 46% 29.80 in 10.0 mi SE 10.4 mph 18.4 mph N/A   Clear
12:35 AM 79.2 °F - 57.4 °F 47% 29.80 in 10.0 mi SSE 12.7 mph - N/A   Clear
12:55 AM 78.8 °F - 57.2 °F 47% 29.80 in 10.0 mi SSE 10.4 mph - N/A   Clear
1:15 AM 78.1 °F - 57.2 °F 49% 29.80 in 10.0 mi SSE 9.2 mph - N/A   Clear
1:35 AM 77.7 °F - 57.2 °F 49% 29.79 in 10.0 mi SSE 10.4 mph - N/A   Scattered Clouds
1:55 AM 77.7 °F - 57.0 °F 49% 29.79 in 10.0 mi SSE 11.5 mph - N/A   Scattered Clouds
2:15 AM 77.5 °F - 56.8 °F 49% 29.78 in 10.0 mi SSE 11.5 mph 17.3 mph N/A   Scattered Clouds
2:35 AM 77.2 °F - 56.5 °F 49% 29.78 in 10.0 mi SSE 11.5 mph - N/A   Clear
2:55 AM 76.3 °F - 56.5 °F 50% 29.78 in 10.0 mi SSE 13.8 mph 18.4 mph N/A   Scattered Clouds
3:15 AM 76.3 °F - 56.3 °F 50% 29.78 in 10.0 mi SSE 12.7 mph 18.4 mph N/A   Mostly Cloudy
3:35 AM 75.7 °F - 55.9 °F 50% 29.78 in 10.0 mi SSE 11.5 mph 17.3 mph N/A   Mostly Cloudy
3:55 AM 75.2 °F - 55.6 °F 50% 29.78 in 10.0 mi SSE 11.5 mph - N/A   Scattered Clouds
4:15 AM 74.1 °F - 55.4 °F 52% 29.78 in 10.0 mi SSE 10.4 mph - N/A   Clear
4:35 AM 74.3 °F - 55.4 °F 52% 29.78 in 10.0 mi SSE 12.7 mph - N/A   Clear
4:55 AM 73.9 °F - 55.2 °F 52% 29.78 in 10.0 mi SSE 11.5 mph - N/A   Clear
5:15 AM 73.8 °F - 55.6 °F 53% 29.78 in 10.0 mi SSE 11.5 mph - N/A   Clear
5:35 AM 73.6 °F - 55.8 °F 54% 29.79 in 10.0 mi SSW 3.5 mph - N/A   Clear
5:55 AM 72.9 °F - 55.9 °F 55% 29.79 in 10.0 mi SSE 3.5 mph - N/A   Scattered Clouds
6:15 AM 72.5 °F - 56.7 °F 57% 29.80 in 10.0 mi Calm Calm - N/A   Mostly Cloudy
6:35 AM 72.0 °F - 57.4 °F 60% 29.80 in 10.0 mi SSE 3.5 mph - N/A   Scattered Clouds
6:55 AM 71.6 °F - 57.7 °F 62% 29.79 in 10.0 mi ESE 5.8 mph - N/A   Clear
7:15 AM 71.4 °F - 58.5 °F 64% 29.78 in 10.0 mi ESE 6.9 mph - N/A Rain Light Rain
7:35 AM 71.2 °F - 59.0 °F 65% 29.79 in 10.0 mi SSE 4.6 mph - N/A   Scattered Clouds
7:55 AM 72.0 °F - 59.9 °F 66% 29.80 in 10.0 mi SE 6.9 mph - N/A   Clear
8:15 AM 71.6 °F - 59.5 °F 66% 29.79 in 10.0 mi SSE 11.5 mph - N/A   Clear
8:35 AM 73.6 °F - 59.0 °F 60% 29.78 in 10.0 mi SSE 10.4 mph - N/A   Clear
8:55 AM 75.2 °F - 59.2 °F 57% 29.79 in 10.0 mi South 13.8 mph - N/A   Clear
9:15 AM 76.5 °F - 59.4 °F 55% 29.79 in 10.0 mi South 12.7 mph - N/A   Clear
9:35 AM 77.4 °F - 59.2 °F 53% 29.80 in 10.0 mi South 11.5 mph - N/A   Clear
9:55 AM 78.4 °F - 59.5 °F 52% 29.78 in 10.0 mi SSE 11.5 mph - N/A   Clear
10:15 AM 79.7 °F - 60.1 °F 51% 29.78 in 10.0 mi SSE 12.7 mph - N/A   Clear
10:35 AM 80.8 °F 81.4 °F 60.3 °F 49% 29.78 in 10.0 mi SSE 12.7 mph - N/A   Clear
10:55 AM 82.4 °F 82.5 °F 59.4 °F 45% 29.78 in 10.0 mi South 15.0 mph - N/A   Clear
11:15 AM 83.8 °F 83.6 °F 59.2 °F 43% 29.79 in 10.0 mi South 11.5 mph 17.3 mph N/A   Clear
11:35 AM 85.1 °F 84.4 °F 58.3 °F 40% 29.78 in 10.0 mi South 13.8 mph - N/A   Clear
11:55 AM 85.5 °F 84.8 °F 58.3 °F 40% 29.79 in 10.0 mi South 12.7 mph - N/A   Clear
12:15 PM 86.4 °F 85.4 °F 57.7 °F 38% 29.78 in 10.0 mi South 10.4 mph 17.3 mph N/A   Clear
12:35 PM 87.8 °F 86.7 °F 57.7 °F 36% 29.78 in 10.0 mi SSE 10.4 mph - N/A   Clear
12:55 PM 87.8 °F 86.7 °F 57.9 °F 36% 29.78 in 10.0 mi South 6.9 mph - N/A   Clear
1:15 PM 88.9 °F 87.5 °F 57.4 °F 34% 29.77 in 10.0 mi South 15.0 mph 19.6 mph N/A   Clear
1:35 PM 89.6 °F 88.4 °F 57.6 °F 34% 29.78 in 10.0 mi SSE 12.7 mph 16.1 mph N/A   Clear
1:55 PM 90.0 °F 88.3 °F 56.7 °F 32% 29.78 in 10.0 mi South 12.7 mph 17.3 mph N/A   Clear
2:15 PM 90.7 °F 89.2 °F 56.7 °F 32% 29.78 in 10.0 mi SSE 11.5 mph - N/A   Clear
2:35 PM 90.9 °F 89.2 °F 56.5 °F 31% 29.78 in 10.0 mi South 10.4 mph 17.3 mph N/A   Clear
2:55 PM 91.2 °F 89.6 °F 56.8 °F 31% 29.77 in 10.0 mi SSE 11.5 mph 16.1 mph N/A   Clear
3:15 PM 91.6 °F 89.8 °F 56.5 °F 30% 29.78 in 10.0 mi South 11.5 mph 17.3 mph N/A   Clear
3:35 PM 91.9 °F 90.0 °F 55.8 °F 29% 29.78 in 10.0 mi South 13.8 mph 20.7 mph N/A   Clear
3:55 PM 92.3 °F 90.5 °F 55.9 °F 29% 29.77 in 10.0 mi South 16.1 mph - N/A   Clear
4:15 PM 92.7 °F 90.9 °F 55.9 °F 29% 29.77 in 10.0 mi SSW 12.7 mph 19.6 mph N/A   Clear
4:35 PM 93.2 °F 91.6 °F 56.7 °F 29% 29.77 in 10.0 mi South 10.4 mph 16.1 mph N/A   Clear
4:55 PM 93.0 °F 91.4 °F 56.1 °F 29% 29.77 in 10.0 mi SSW 12.7 mph - N/A   Clear
5:15 PM 93.0 °F 91.4 °F 56.7 °F 29% 29.77 in 10.0 mi South 12.7 mph 16.1 mph N/A   Clear
5:35 PM 92.3 °F 90.5 °F 55.9 °F 29% 29.77 in 10.0 mi South 11.5 mph - N/A   Clear
5:55 PM 91.9 °F 90.3 °F 56.1 °F 30% 29.76 in 10.0 mi SSE 9.2 mph - N/A   Clear
6:15 PM 91.8 °F 90.3 °F 57.2 °F 31% 29.76 in 10.0 mi SSE 11.5 mph - N/A   Clear
6:35 PM 91.4 °F 90.1 °F 57.6 °F 32% 29.76 in 10.0 mi South 10.4 mph - N/A   Clear
6:55 PM 90.1 °F 89.1 °F 58.1 °F 34% 29.76 in 10.0 mi SSE 9.2 mph - N/A   Clear
7:15 PM 90.0 °F 89.4 °F 59.5 °F 36% 29.76 in 10.0 mi SSE 8.1 mph - N/A   Clear
7:35 PM 88.7 °F 88.8 °F 61.2 °F 40% 29.76 in 10.0 mi SSE 6.9 mph - N/A   Clear
7:55 PM 88.0 °F 87.6 °F 60.4 °F 39% 29.76 in 10.0 mi SSE 6.9 mph - N/A   Clear
8:15 PM 86.9 °F 87.0 °F 61.0 °F 42% 29.78 in 10.0 mi SSE 4.6 mph - N/A   Clear
8:35 PM 86.0 °F 85.9 °F 60.4 °F 42% 29.78 in 10.0 mi SSE 4.6 mph - N/A   Clear
8:55 PM 85.1 °F 85.2 °F 61.2 °F 44% 29.79 in 10.0 mi Calm Calm - N/A   Clear
9:15 PM 83.3 °F 83.9 °F 61.7 °F 48% 29.79 in 10.0 mi SE 4.6 mph - N/A   Clear
9:35 PM 81.9 °F 83.5 °F 64.6 °F 56% 29.80 in 10.0 mi ESE 9.2 mph - N/A   Clear
9:55 PM 81.0 °F 82.9 °F 65.5 °F 59% 29.80 in 10.0 mi SE 8.1 mph - N/A   Clear
10:15 PM 80.1 °F 82.0 °F 65.7 °F 61% 29.81 in 10.0 mi SE 8.1 mph - N/A   Clear
10:35 PM 79.5 °F - 65.8 °F 63% 29.81 in 10.0 mi SE 8.1 mph - N/A   Clear
10:55 PM 79.0 °F - 65.1 °F 62% 29.82 in 10.0 mi SE 6.9 mph - N/A   Clear
11:15 PM 79.3 °F - 63.7 °F 59% 29.83 in 10.0 mi SSE 8.1 mph - N/A   Clear
11:35 PM 78.1 °F - 63.3 °F 60% 29.83 in 10.0 mi SSE 5.8 mph - N/A   Clear
11:55 PM 77.9 °F - 61.9 °F 58% 29.83 in 10.0 mi South 6.9 mph - N/A   Clear